"Pseudo-MPEC" for P117Z5S

Created 2020 Oct 21 0:07:27 UT using Find_Orb

Click here for an explanation of pseudo-MPECs

 
 Astrometry: 
     P117Z5S  C2020 10 15=T,y3B9nBgDGybRRwBDE)(I2@g:6/1Do1W8$ZkJ;mAstrometry#F51
     P117Z5S  C2020 10 15#EVATy%]7#@$qredacted;0g(T6mfNqF/=p$0N'/^[Q8ZVO\GRW%F51
     P117Z5S  C2020 10 15#Al`P\-p1%tvfx,:Y;xnF7(Vfd#su(PqN6!1DqB#3pyyn_nMTlA!F51
     P117Z5S  C2020 10 17]IWJclickg5w==MhFiWb`S?MIrqWtx1gsf$BxNc3%Z*SPKk-g+:,F51
     P117Z5S  C2020 10 172cXm4ig2.+A3'?;ERA%\N\gSMt@3iy,^lAMZS'B_HUfgK1sFk0tMF51
     P117Z5S  C2020 10 17wMTKGA:MuG1gh8!u?D4hS!/$f)J19x86%GaLBVy=#d+E,@B*/d80F51
     P117Z5S  C2020 10 19sPVAos._yU!%RW%o4CTYF;SByb,7LYTW6Os_H[y!k'C1`lE]GX)1F52
     P117Z5S  C2020 10 19%;N1SEa1[6^t8@Mn1MOT8iF]LG;0c'5%U!X/F?A[/%/!y]o0dxd#F52
     P117Z5S  C2020 10 19ge::20Jv79!F:3/`,*A;dQpchftR8U,#p6Jfq=gqXT`1:UOEK83kF52
     P117Z5S  C2020 10 19fe0%hereu(krK@^v]%m;Ys4?^(t3'LnklY!q.qTS3LX-eTEjG:$AF52
     P117Z5S  C2020 10 20NwY0rm7rs+=e??7'6k[$=9e(n0M;KQ6SNJqULj;j/4c;SkvWcjwkF51
     P117Z5S  C2020 10 20^-rS2ID@Rforn^,?9Yc.#rBfs8?hQ'XNMexplanationp5EJIHBUF51
     P117Z5S  C2020 10 20pa5s@x(wJ$cw)+4wcbJ4Qp8Ss`uN0UiyO0w1-!5Ky,.okBl.^qB5F51

Station data:
(F51) Pan-STARRS 1, Haleakala  (N20.707235 W156.255910)  US/Hawaii.
   Observers N. Primak, A. Schultz, S. Watters, J. Thiel, T. Goggia. Measurer
   PS1 Science Consortium. 1.8-m Ritchey-Chrétien + CCD.
(F52) Pan-STARRS 2, Haleakala  (N20.707384 W156.255910)  US/Hawaii. 1.8-m
   Ritchey-Chrétien + CCD.

Orbital elements:  P117Z5S
   Perihelion 2020 Sep 27.731942 +/- 0.0367 TT = 17:33:59 (JD 2459120.231942)
Epoch 2020 Oct 20.0 TT = JDT 2459142.5   Earth MOID: 0.0589   AutoNEOCP
M  15.23009269 +/- 0.019            (J2000 ecliptic)
n   0.68394346 +/- 0.000749         Peri.  141.37808 +/- 0.044
a   1.27581952 +/- 0.000932         Node   224.97455 +/- 0.010
e   0.1702287 +/- 0.00049           Incl.    1.45987 +/- 0.0040
P   1.44/526.35d           H 27.5   G  0.15   U  7.9  
q 1.05863837 +/- 0.000162    Q 1.49300068 +/- 0.00171
From 13 observations 2020 Oct. 15-20; mean residual 0".19
Residuals in arcseconds: 
201015 F51  .13+  .08+    201017 F51  .21-  .15-    201020 F51  .07+  .19+    
201015 F51  .08+  .02+    201019 F52  .01-  .11+    201020 F51  .13-  .04-    
201015 F51  .10-  .06+    201019 F52  .43-  .33+    201020 F51  .17+  .01-    
201017 F51  .05+  .32-    201019 F52  .01+  .23-    
201017 F51  .01+  .21+    201019 F52  .36+  .26-    

Ephemerides (geocentric):
Date (UTC) HH   RA              Dec         delta   r     elong  mag " sig PA
---- -- -- --  -------------   -----------  ------ ------ -----  --- ---- ---
2020 10 21 00  02 40 28.452   +21 24 25.16  .07845 1.0706 162.6 23.0 4.0m 164
2020 10 21 01  02 40 32.142   +21 23 40.61  .07849 1.0706 162.6 23.0 4.4m 179
2020 10 21 02  02 40 35.824   +21 22 56.07  .07853 1.0707 162.6 23.0 5.0m  11
2020 10 21 03  02 40 39.496   +21 22 11.52  .07858 1.0707 162.7 23.0 5.9m  20
2020 10 21 04  02 40 43.160   +21 21 26.97  .07862 1.0708 162.7 23.0 6.8m  27
2020 10 21 05  02 40 46.815   +21 20 42.41  .07866 1.0708 162.7 23.0 7.9m  33
2020 10 21 06  02 40 50.461   +21 19 57.86  .07870 1.0709 162.8 23.0 9.0m  37
2020 10 21 07  02 40 54.098   +21 19 13.30  .07875 1.0709 162.8 23.0 .010  40
2020 10 21 08  02 40 57.727   +21 18 28.74  .07879 1.0709 162.8 23.0 .011  43
2020 10 21 09  02 41 01.347   +21 17 44.19  .07883 1.0710 162.9 23.0 .013  45
2020 10 21 10  02 41 04.958   +21 16 59.63  .07888 1.0710 162.9 23.0 .014  47
2020 10 21 11  02 41 08.560   +21 16 15.07  .07892 1.0711 162.9 23.0 .015  48
2020 10 21 12  02 41 12.154   +21 15 30.51  .07896 1.0711 163.0 23.0 .016  50
2020 10 21 13  02 41 15.739   +21 14 45.95  .07900 1.0712 163.0 23.0 .018  51
2020 10 21 14  02 41 19.315   +21 14 01.39  .07905 1.0712 163.1 23.0 .019  52
2020 10 21 15  02 41 22.883   +21 13 16.84  .07909 1.0712 163.1 23.0 .021  53
2020 10 21 16  02 41 26.442   +21 12 32.28  .07914 1.0713 163.1 23.0 .022  54
2020 10 21 17  02 41 29.992   +21 11 47.72  .07918 1.0713 163.2 23.0 .023  55
2020 10 21 18  02 41 33.534   +21 11 03.17  .07922 1.0714 163.2 23.0 .025  55
2020 10 21 19  02 41 37.067   +21 10 18.61  .07927 1.0714 163.2 23.0 .026  56
2020 10 21 20  02 41 40.592   +21 09 34.06  .07931 1.0715 163.3 23.0 .028  57
2020 10 21 21  02 41 44.108   +21 08 49.51  .07935 1.0715 163.3 23.0 .029  57
2020 10 21 22  02 41 47.615   +21 08 04.96  .07940 1.0715 163.3 23.0 .031  58
2020 10 21 23  02 41 51.115   +21 07 20.41  .07944 1.0716 163.4 23.0 .032  58
2020 10 22 00  02 41 54.605   +21 06 35.87  .07949 1.0716 163.4 23.0 .034  59
2020 10 22 01  02 41 58.087   +21 05 51.33  .07953 1.0717 163.4 23.0 .035  59
2020 10 22 02  02 42 01.561   +21 05 06.79  .07957 1.0717 163.5 23.0 .037  60
2020 10 22 03  02 42 05.026   +21 04 22.25  .07962 1.0718 163.5 23.0 .039  60
2020 10 22 04  02 42 08.483   +21 03 37.72  .07966 1.0718 163.6 23.0 .040  60
2020 10 22 05  02 42 11.931   +21 02 53.19  .07971 1.0719 163.6 23.0 .042  61
2020 10 22 06  02 42 15.371   +21 02 08.67  .07975 1.0719 163.6 23.0 .044  61
2020 10 22 07  02 42 18.803   +21 01 24.15  .07980 1.0719 163.7 23.0 .045  61
2020 10 22 08  02 42 22.226   +21 00 39.63  .07984 1.0720 163.7 23.0 .047  62
2020 10 22 09  02 42 25.641   +20 59 55.12  .07989 1.0720 163.7 23.0 .049  62
2020 10 22 10  02 42 29.047   +20 59 10.61  .07993 1.0721 163.8 23.0 .050  62
2020 10 22 11  02 42 32.445   +20 58 26.10  .07998 1.0721 163.8 23.0 .052  62
2020 10 22 12  02 42 35.835   +20 57 41.61  .08002 1.0722 163.8 23.0 .054  63
2020 10 22 13  02 42 39.217   +20 56 57.11  .08007 1.0722 163.9 23.0 .055  63
2020 10 22 14  02 42 42.590   +20 56 12.62  .08011 1.0723 163.9 23.0 .057  63
2020 10 22 15  02 42 45.955   +20 55 28.14  .08016 1.0723 163.9 23.0 .059  63
2020 10 22 16  02 42 49.312   +20 54 43.66  .08020 1.0723 164.0 23.0 .061  64
2020 10 22 17  02 42 52.661   +20 53 59.19  .08025 1.0724 164.0 23.0 .063  64
2020 10 22 18  02 42 56.001   +20 53 14.72  .08029 1.0724 164.1 23.0 .064  64
2020 10 22 19  02 42 59.333   +20 52 30.27  .08034 1.0725 164.1 23.0 .066  64
2020 10 22 20  02 43 02.657   +20 51 45.81  .08038 1.0725 164.1 23.0 .068  65
2020 10 22 21  02 43 05.973   +20 51 01.37  .08043 1.0726 164.2 23.0 .070  65
2020 10 22 22  02 43 09.281   +20 50 16.93  .08048 1.0726 164.2 23.0 .072  65
2020 10 22 23  02 43 12.581   +20 49 32.49  .08052 1.0727 164.2 23.0 .074  65